This demonstration page uses our WeatherBlox Daily Observations layout. Learn more.

Left ArrowRight Arrow

36.17497, -115.13722

Hourly Observations for December 4, 2018

Temp ( °F °C ) Dew Point ( °F °C ) Humidity (%) Winds ( mph kmh ) Pressure ( in mb ) Visibility ( mi km ) Precip ( " mm )
12:53 am 00:53 Clear 38 3.3 22 -5.6 52 52 WSW 3 6 30.32 1027 10 16.0934 0 0
1:53 am 01:53 Clear 37 2.8 22 -5.6 54 54 NNW 3 6 30.32 1027 10 16.0934 0 0
2:53 am 02:53 Clear 37 2.8 22 -5.6 54 54 NW 6 9 30.34 1027 10 16.0934 0 0
3:53 am 03:53 Clear 37 2.8 22 -5.6 54 54 NNE 6 9 30.33 1027 10 16.0934 0 0
4:53 am 04:53 Clear 38 3.3 22 -5.6 52 52 Calm 30.33 1027 10 16.0934 0 0
5:53 am 05:53 Partly Cloudy 41 5 22 -5.6 47 47 SW 5 7 30.35 1028 10 16.0934 0 0
6:53 am 06:53 Mostly Cloudy 42 5.6 20 -6.7 41 41 Calm 30.35 1028 10 16.0934 0 0
7:53 am 07:53 Partly Cloudy 43 6.1 19 -7.2 38 38 SW 3 6 30.37 1029 10 16.0934 0 0
8:53 am 08:53 Mostly Sunny 44 6.7 19 -7.2 37 37 SW 3 6 30.39 1029 10 16.0934 0 0
9:53 am 09:53 Sunny 47 8.3 19 -7.2 33 33 Calm 30.39 1029 10 16.0934 0 0
10:53 am 10:53 Sunny 50 10 16 -8.9 26 26 Calm 30.36 1028 10 16.0934 0 0
11:53 am 11:53 Partly Cloudy 50 10 15 -9.4 25 25 S 3 6 30.32 1027 10 16.0934 0 0
12:53 pm 12:53 Mostly Cloudy 51 10.6 14 -10 23 23 Calm 30.28 1026 10 16.0934 0 0
1:53 pm 13:53 Sunny 53 11.7 11 -11.7 18 18 ESE 15 24 30.25 1024 10 16.0934 0 0
2:53 pm 14:53 Sunny 53 11.7 11 -11.7 18 18 E 13 20 30.23 1024 10 16.0934 0 0
3:53 pm 15:53 Sunny 52 11.1 12 -11.1 20 20 E 15 24 30.22 1024 10 16.0934 0 0
4:53 pm 16:53 Clear 49 9.4 12 -11.1 22 22 E 10 17 30.22 1023 10 16.0934 0 0
5:53 pm 17:53 Clear 47 8.3 14 -10 26 26 VRB 3 6 30.22 1023 10 16.0934 0 0
6:53 pm 18:53 Clear 46 7.8 15 -9.4 29 29 SSW 3 6 30.22 1023 10 16.0934 0 0
7:53 pm 19:53 Clear 45 7.2 16 -8.9 31 31 W 5 7 30.22 1023 10 16.0934 0 0
8:53 pm 20:53 Clear 41 5 17 -8.3 38 38 WSW 6 9 30.21 1023 10 16.0934 0 0
9:53 pm 21:53 Clear 44 6.7 17 -8.3 34 34 SSW 3 6 30.19 1023 10 16.0934 0 0
10:53 pm 22:53 Clear 42 5.6 17 -8.3 36 36 SW 6 9 30.18 1022 10 16.0934 0 0
11:53 pm 23:53 Clear 42 5.6 18 -7.8 38 38 SW 7 11 30.16 1021 10 16.0934 0 0

Powered by AerisWeather